N87LA PAJN-CYXS

Flight info

Callsign N87LA
Flight time 1h 33m
Altitude 35000
Route ASORT3 ASORT DCT DUXAR
Aircraft STAR/L-SDFGRWY/S

Departure

Time 2026-05-04 22:43
Airport Juneau International Airport (PAJN)

Arrival

Time 2026-05-05 00:17
Airport Prince George (International) Airport (CYXS)
Time Latitude Longitude Altitude Speed Heading
2026-05-04 22:15 58.36020 -134.58597 68 ft 0 kts 179°
2026-05-04 22:36 58.36013 -134.58593 65 ft 6 kts 148°
2026-05-04 22:37 58.35990 -134.58541 66 ft 5 kts 148°
2026-05-04 22:37 58.35956 -134.58525 78 ft 6 kts 172°
2026-05-04 22:37 58.35913 -134.58538 29 ft 6 kts 209°
2026-05-04 22:37 58.35852 -134.58612 29 ft 14 kts 197°
2026-05-04 22:38 58.35748 -134.58560 29 ft 19 kts 129°
2026-05-04 22:38 58.35705 -134.58320 29 ft 18 kts 104°
2026-05-04 22:38 58.35674 -134.58093 29 ft 17 kts 104°
2026-05-04 22:38 58.35647 -134.57884 30 ft 16 kts 104°
2026-05-04 22:39 58.35614 -134.57645 30 ft 22 kts 104°
2026-05-04 22:39 58.35574 -134.57346 30 ft 23 kts 104°
2026-05-04 22:39 58.35533 -134.57065 29 ft 21 kts 105°
2026-05-04 22:39 58.35498 -134.56808 29 ft 19 kts 104°
2026-05-04 22:40 58.35459 -134.56532 29 ft 25 kts 105°
2026-05-04 22:40 58.35411 -134.56198 29 ft 25 kts 105°
2026-05-04 22:40 58.35366 -134.55896 29 ft 22 kts 104°
2026-05-04 22:40 58.35331 -134.55632 29 ft 16 kts 110°
2026-05-04 22:41 58.35280 -134.55537 29 ft 10 kts 170°
2026-05-04 22:41 58.35213 -134.55579 27 ft 10 kts 232°
2026-05-04 22:41 58.35213 -134.55671 27 ft 4 kts 285°
2026-05-04 22:41 58.35213 -134.55676 27 ft 0 kts 284°
2026-05-04 22:42 58.35217 -134.55705 27 ft 4 kts 283°
2026-05-04 22:42 58.35226 -134.55774 27 ft 0 kts 285°
2026-05-04 22:43 58.35272 -134.56091 28 ft 47 kts 286°
2026-05-04 22:43 58.35396 -134.56964 29 ft 90 kts 285°
2026-05-04 22:43 58.35569 -134.58182 392 ft 98 kts 281°
2026-05-04 22:43 58.35702 -134.59593 836 ft 120 kts 272°
2026-05-04 22:44 58.35243 -134.60895 1311 ft 136 kts 198°
2026-05-04 22:44 58.34376 -134.60324 1726 ft 147 kts 121°
2026-05-04 22:44 58.34270 -134.58392 2328 ft 151 kts 88°
2026-05-04 22:44 58.34268 -134.56259 2819 ft 174 kts 92°
2026-05-04 22:45 58.34045 -134.53874 3240 ft 192 kts 108°
2026-05-04 22:45 58.32641 -134.49204 4245 ft 211 kts 124°
2026-05-04 22:45 58.31731 -134.46916 4783 ft 221 kts 128°
2026-05-04 22:46 58.30724 -134.44660 5349 ft 227 kts 130°
2026-05-04 22:46 58.29677 -134.42392 5937 ft 228 kts 131°
2026-05-04 22:46 58.28668 -134.40125 6666 ft 221 kts 128°
2026-05-04 22:46 58.27799 -134.37740 7308 ft 220 kts 122°
2026-05-04 22:47 58.26961 -134.35318 7803 ft 227 kts 124°
2026-05-04 22:47 58.26043 -134.32826 8274 ft 233 kts 124°
2026-05-04 22:47 58.25219 -134.30156 8839 ft 232 kts 116°
2026-05-04 22:47 58.24519 -134.27389 9466 ft 234 kts 114°
2026-05-04 22:48 58.23861 -134.24545 10017 ft 236 kts 113°
2026-05-04 22:48 58.23135 -134.21735 10547 ft 238 kts 119°
2026-05-04 22:48 58.22333 -134.18977 11093 ft 239 kts 118°
2026-05-04 22:48 58.21580 -134.16165 11648 ft 240 kts 117°
2026-05-04 22:49 58.20811 -134.13352 12197 ft 240 kts 119°
2026-05-04 22:49 58.20026 -134.10546 12778 ft 242 kts 119°
2026-05-04 22:49 58.19258 -134.07747 13405 ft 243 kts 119°
2026-05-04 22:49 58.18475 -134.04904 14047 ft 244 kts 120°
2026-05-04 22:50 58.17683 -134.02050 14629 ft 245 kts 120°
2026-05-04 22:50 58.16892 -133.99193 15228 ft 245 kts 121°
2026-05-04 22:50 58.16094 -133.96320 15770 ft 247 kts 121°
2026-05-04 22:50 58.15297 -133.93443 16387 ft 247 kts 121°
2026-05-04 22:51 58.14493 -133.90545 16969 ft 248 kts 121°
2026-05-04 22:51 58.13696 -133.87693 17506 ft 250 kts 122°
2026-05-04 22:51 58.12879 -133.84780 18058 ft 251 kts 122°
2026-05-04 22:51 58.12071 -133.81851 18542 ft 251 kts 122°
2026-05-04 22:52 58.11251 -133.78936 19041 ft 252 kts 123°
2026-05-04 22:52 58.10433 -133.76000 19553 ft 254 kts 123°
2026-05-04 22:52 58.09602 -133.73039 20046 ft 255 kts 123°
2026-05-04 22:52 58.08768 -133.70071 20546 ft 257 kts 123°
2026-05-04 22:53 58.07928 -133.67078 21040 ft 258 kts 123°
2026-05-04 22:53 58.07086 -133.64073 21544 ft 260 kts 123°
2026-05-04 22:53 58.06240 -133.61080 21946 ft 259 kts 125°
2026-05-04 22:53 58.05391 -133.58101 22396 ft 262 kts 124°
2026-05-04 22:54 58.04544 -133.55038 22816 ft 264 kts 124°
2026-05-04 22:54 58.03672 -133.51989 23291 ft 264 kts 125°
2026-05-04 22:54 58.02798 -133.48915 23739 ft 267 kts 124°
2026-05-04 22:54 58.01930 -133.45823 24160 ft 266 kts 125°
2026-05-04 22:55 58.01046 -133.42734 24530 ft 269 kts 124°
2026-05-04 22:55 58.00169 -133.39618 24811 ft 269 kts 125°
2026-05-04 22:55 57.99271 -133.36531 25224 ft 270 kts 124°
2026-05-04 22:55 57.98398 -133.33388 25603 ft 271 kts 124°
2026-05-04 22:56 57.97498 -133.30258 25965 ft 271 kts 125°
2026-05-04 22:56 57.96614 -133.27180 26344 ft 271 kts 125°
2026-05-04 22:56 57.95719 -133.24049 26710 ft 272 kts 124°
2026-05-04 22:56 57.94821 -133.20907 27068 ft 272 kts 125°
2026-05-04 22:57 57.93922 -133.17770 27419 ft 273 kts 125°
2026-05-04 22:57 57.93014 -133.14628 27781 ft 274 kts 125°
2026-05-04 22:57 57.92107 -133.11476 28150 ft 273 kts 127°
2026-05-04 22:57 57.91200 -133.08326 28436 ft 275 kts 124°
2026-05-04 22:58 57.90300 -133.05143 28728 ft 276 kts 126°
2026-05-04 22:58 57.89381 -133.01979 29047 ft 275 kts 124°
2026-05-04 22:58 57.88458 -132.98892 29365 ft 275 kts 126°
2026-05-04 22:58 57.87549 -132.95713 29643 ft 277 kts 124°
2026-05-04 22:59 57.86639 -132.92519 29927 ft 278 kts 126°
2026-05-04 22:59 57.85701 -132.89356 30203 ft 278 kts 125°
2026-05-04 22:59 57.84779 -132.86146 30436 ft 280 kts 124°
2026-05-04 22:59 57.83844 -132.82939 30658 ft 280 kts 126°
2026-05-04 23:00 57.82902 -132.79735 30894 ft 281 kts 125°
2026-05-04 23:00 57.81970 -132.76520 31165 ft 280 kts 125°
2026-05-04 23:00 57.81031 -132.73318 31401 ft 281 kts 125°
2026-05-04 23:00 57.80102 -132.70152 31615 ft 282 kts 125°
2026-05-04 23:01 57.79160 -132.66930 31840 ft 282 kts 125°
2026-05-04 23:01 57.78214 -132.63712 32070 ft 281 kts 125°
2026-05-04 23:01 57.77266 -132.60505 32289 ft 280 kts 127°
2026-05-04 23:01 57.76322 -132.57300 32419 ft 284 kts 123°
2026-05-04 23:02 57.75373 -132.54019 32548 ft 287 kts 125°
2026-05-04 23:02 57.74389 -132.50769 32695 ft 287 kts 124°
2026-05-04 23:02 57.73427 -132.47481 32868 ft 288 kts 124°
2026-05-04 23:02 57.72467 -132.44233 33085 ft 285 kts 125°
2026-05-04 23:03 57.71496 -132.40982 33274 ft 286 kts 124°
2026-05-04 23:03 57.70530 -132.37726 33385 ft 287 kts 124°
2026-05-04 23:03 57.69569 -132.34493 33561 ft 289 kts 125°
2026-05-04 23:03 57.68589 -132.31207 33696 ft 290 kts 123°
2026-05-04 23:04 57.67614 -132.27898 33833 ft 291 kts 124°
2026-05-04 23:04 57.66620 -132.24617 34029 ft 290 kts 124°
2026-05-04 23:04 57.65640 -132.21328 34250 ft 289 kts 124°
2026-05-04 23:04 57.64659 -132.18041 34391 ft 290 kts 124°
2026-05-04 23:05 57.63667 -132.14757 34532 ft 291 kts 124°
2026-05-04 23:05 57.62677 -132.11449 34668 ft 293 kts 124°
2026-05-04 23:05 57.61691 -132.08168 34810 ft 294 kts 125°
2026-05-04 23:05 57.60690 -132.04851 34957 ft 293 kts 125°
2026-05-04 23:06 57.59688 -132.01528 35064 ft 295 kts 125°
2026-05-04 23:06 57.58677 -131.98186 35121 ft 298 kts 125°
2026-05-04 23:06 57.56602 -131.91327 35142 ft 310 kts 125°
2026-05-04 23:07 57.54466 -131.84304 35150 ft 315 kts 125°
2026-05-04 23:07 57.52301 -131.77181 35144 ft 320 kts 125°
2026-05-04 23:08 57.50082 -131.69923 35137 ft 325 kts 125°
2026-05-04 23:08 57.47831 -131.62580 35139 ft 329 kts 125°
2026-05-04 23:09 57.45555 -131.55174 35135 ft 332 kts 125°
2026-05-04 23:09 57.43257 -131.47725 35134 ft 333 kts 125°
2026-05-04 23:10 57.40954 -131.40280 35133 ft 332 kts 125°
2026-05-04 23:10 57.38661 -131.32901 35127 ft 334 kts 124°
2026-05-04 23:11 57.36339 -131.25432 35131 ft 334 kts 124°
2026-05-04 23:11 57.34007 -131.17968 35130 ft 335 kts 125°
2026-05-04 23:12 57.31668 -131.10503 35129 ft 335 kts 125°
2026-05-04 23:12 57.29345 -131.03113 35128 ft 334 kts 125°
2026-05-04 23:13 57.27005 -130.95690 35117 ft 334 kts 125°
2026-05-04 23:13 57.24664 -130.88293 35120 ft 334 kts 125°
2026-05-04 23:14 57.22315 -130.80887 35116 ft 334 kts 124°
2026-05-04 23:14 57.19958 -130.73481 35109 ft 335 kts 125°
2026-05-04 23:15 57.17610 -130.66125 35110 ft 335 kts 124°
2026-05-04 23:15 57.15237 -130.58717 35108 ft 336 kts 125°
2026-05-04 23:16 57.12856 -130.51302 35100 ft 337 kts 124°
2026-05-04 23:16 57.10450 -130.43847 35095 ft 339 kts 124°
2026-05-04 23:17 57.08040 -130.36384 35095 ft 339 kts 125°
2026-05-04 23:17 57.05643 -130.28984 35087 ft 340 kts 124°
2026-05-04 23:18 57.03214 -130.21527 35091 ft 341 kts 124°
2026-05-04 23:18 57.00774 -130.14051 35085 ft 342 kts 124°
2026-05-04 23:19 56.98326 -130.06570 35088 ft 341 kts 124°
2026-05-04 23:19 56.95885 -129.99135 35084 ft 338 kts 124°
2026-05-04 23:20 56.93468 -129.91801 35082 ft 339 kts 124°
2026-05-04 23:20 56.91028 -129.84427 35077 ft 337 kts 123°
2026-05-04 23:21 56.88602 -129.77090 35079 ft 337 kts 124°
2026-05-04 23:21 56.86160 -129.69743 35077 ft 339 kts 124°
2026-05-04 23:22 56.83704 -129.62390 35076 ft 339 kts 124°
2026-05-04 23:22 56.81239 -129.55014 35070 ft 341 kts 124°
2026-05-04 23:23 56.78763 -129.47635 35065 ft 341 kts 124°
2026-05-04 23:23 56.76233 -129.40316 35072 ft 340 kts 129°
2026-05-04 23:24 56.73576 -129.33193 35062 ft 345 kts 127°
2026-05-04 23:24 56.70875 -129.25998 35063 ft 343 kts 126°
2026-05-04 23:25 56.68192 -129.18853 35057 ft 341 kts 127°
2026-05-04 23:25 56.65516 -129.11719 35059 ft 343 kts 127°
2026-05-04 23:26 56.62820 -129.04551 35053 ft 344 kts 127°
2026-05-04 23:26 56.60109 -128.97382 35046 ft 344 kts 127°
2026-05-04 23:27 56.57397 -128.90236 35035 ft 344 kts 127°
2026-05-04 23:27 56.54682 -128.83086 35044 ft 344 kts 127°
2026-05-04 23:28 56.51985 -128.76007 35044 ft 343 kts 127°
2026-05-04 23:28 56.49264 -128.68896 35043 ft 343 kts 127°
2026-05-04 23:29 56.46542 -128.61798 35048 ft 343 kts 127°
2026-05-04 23:29 56.43824 -128.54725 35049 ft 341 kts 127°
2026-05-04 23:30 56.41106 -128.47689 35069 ft 343 kts 127°
2026-05-04 23:30 56.38378 -128.40626 35060 ft 344 kts 126°
2026-05-04 23:31 56.35627 -128.33536 35055 ft 345 kts 126°
2026-05-04 23:31 56.32867 -128.26442 35060 ft 346 kts 126°
2026-05-04 23:32 56.30113 -128.19384 35061 ft 347 kts 126°
2026-05-04 23:32 56.27327 -128.12267 35059 ft 348 kts 127°
2026-05-04 23:33 56.24539 -128.05163 35058 ft 348 kts 127°
2026-05-04 23:33 56.21744 -127.98065 35056 ft 347 kts 126°
2026-05-04 23:34 56.18947 -127.90982 35057 ft 346 kts 126°
2026-05-04 23:34 56.16160 -127.83938 35057 ft 344 kts 127°
2026-05-04 23:35 56.13396 -127.76973 35057 ft 346 kts 126°
2026-05-04 23:35 56.10602 -127.69959 35058 ft 345 kts 126°
2026-05-04 23:36 56.07797 -127.62939 35068 ft 347 kts 126°
2026-05-04 23:36 56.04985 -127.55920 35054 ft 346 kts 126°
2026-05-04 23:37 56.02189 -127.48951 35060 ft 347 kts 127°
2026-05-04 23:37 55.99367 -127.41948 35061 ft 348 kts 127°
2026-05-04 23:38 55.96540 -127.34953 35063 ft 348 kts 126°
2026-05-04 23:38 55.93706 -127.27956 35065 ft 348 kts 127°
2026-05-04 23:39 55.90868 -127.20961 35059 ft 348 kts 127°
2026-05-04 23:39 55.88012 -127.13962 35058 ft 350 kts 127°
2026-05-04 23:40 55.85150 -127.06962 35055 ft 350 kts 127°
2026-05-04 23:40 55.82289 -126.99976 35054 ft 349 kts 127°
2026-05-04 23:41 55.79915 -126.94197 35052 ft 348 kts 127°
2026-05-04 23:41 55.76591 -126.86129 35049 ft 348 kts 127°
2026-05-04 23:42 55.73728 -126.79201 35050 ft 348 kts 127°
2026-05-04 23:42 55.71343 -126.73445 35048 ft 348 kts 127°
2026-05-04 23:43 55.68465 -126.66514 35047 ft 349 kts 127°
2026-05-04 23:43 55.65578 -126.59590 35044 ft 350 kts 127°
2026-05-04 23:44 55.62684 -126.52659 35044 ft 350 kts 127°
2026-05-04 23:44 55.59782 -126.45728 35042 ft 351 kts 127°
2026-05-04 23:45 55.56872 -126.38808 35042 ft 350 kts 127°
2026-05-04 23:45 55.53957 -126.31882 35045 ft 352 kts 126°
2026-05-04 23:46 55.51044 -126.24997 35038 ft 353 kts 126°
2026-05-04 23:46 55.48100 -126.18050 35034 ft 353 kts 126°
2026-05-04 23:47 55.45156 -126.11115 35032 ft 353 kts 126°
2026-05-04 23:47 55.42208 -126.04198 35033 ft 353 kts 126°
2026-05-04 23:48 55.39254 -125.97284 35034 ft 353 kts 126°
2026-05-04 23:48 55.36310 -125.90416 35034 ft 354 kts 126°
2026-05-04 23:49 55.33343 -125.83515 35033 ft 354 kts 126°
2026-05-04 23:49 55.30350 -125.76565 35033 ft 354 kts 126°
2026-05-04 23:50 55.27396 -125.69729 35035 ft 354 kts 126°
2026-05-04 23:50 55.24411 -125.62841 35035 ft 355 kts 126°
2026-05-04 23:51 55.21418 -125.55953 35035 ft 355 kts 126°
2026-05-04 23:51 55.18421 -125.49076 35028 ft 356 kts 126°
2026-05-04 23:52 55.15418 -125.42211 35030 ft 355 kts 126°
2026-05-04 23:52 55.12427 -125.35383 35026 ft 357 kts 126°
2026-05-04 23:53 55.10912 -125.31929 34799 ft 365 kts 126°
2026-05-04 23:53 55.09333 -125.28336 34328 ft 380 kts 126°
2026-05-04 23:53 55.07699 -125.24632 33833 ft 391 kts 126°
2026-05-04 23:53 55.06022 -125.20823 33292 ft 399 kts 126°
2026-05-04 23:54 55.04312 -125.16959 32768 ft 405 kts 126°
2026-05-04 23:54 55.02586 -125.13054 32252 ft 408 kts 126°
2026-05-04 23:54 55.00852 -125.09143 31800 ft 406 kts 126°
2026-05-04 23:54 54.99136 -125.05276 31348 ft 402 kts 125°
2026-05-04 23:55 54.97430 -125.01442 30907 ft 399 kts 126°
2026-05-04 23:55 54.95736 -124.97630 30472 ft 399 kts 126°
2026-05-04 23:55 54.92328 -124.89998 29533 ft 400 kts 126°
2026-05-04 23:56 54.90618 -124.86176 29033 ft 401 kts 126°
2026-05-04 23:56 54.88929 -124.82407 28550 ft 401 kts 126°
2026-05-04 23:56 54.87128 -124.78720 28071 ft 401 kts 133°
2026-05-04 23:56 54.85107 -124.75384 27601 ft 401 kts 136°
2026-05-04 23:57 54.83090 -124.72055 27140 ft 399 kts 131°
2026-05-04 23:57 54.81205 -124.68535 26687 ft 399 kts 133°
2026-05-04 23:57 54.79228 -124.65135 26243 ft 400 kts 132°
2026-05-04 23:57 54.77313 -124.61659 25804 ft 400 kts 132°
2026-05-04 23:58 54.75348 -124.58232 25381 ft 401 kts 132°
2026-05-04 23:58 54.73407 -124.54768 24948 ft 402 kts 131°
2026-05-04 23:58 54.71443 -124.51313 24526 ft 402 kts 132°
2026-05-04 23:58 54.69487 -124.47863 24112 ft 402 kts 131°
2026-05-04 23:59 54.67534 -124.44417 23710 ft 402 kts 132°
2026-05-04 23:59 54.65568 -124.40967 23242 ft 404 kts 132°
2026-05-04 23:59 54.63601 -124.37505 22760 ft 403 kts 132°
2026-05-04 23:59 54.61656 -124.34100 22303 ft 402 kts 132°
2026-05-05 00:00 54.59697 -124.30670 21878 ft 401 kts 132°
2026-05-05 00:00 54.58379 -124.28362 21579 ft 400 kts 132°
2026-05-05 00:00 54.55792 -124.23847 21017 ft 398 kts 132°
2026-05-05 00:00 54.53848 -124.20455 20596 ft 397 kts 132°
2026-05-05 00:01 54.51913 -124.17091 20176 ft 394 kts 132°
2026-05-05 00:01 54.49992 -124.13745 19769 ft 392 kts 132°
2026-05-05 00:01 54.48079 -124.10427 19365 ft 390 kts 132°
2026-05-05 00:01 54.46171 -124.07122 18965 ft 388 kts 132°
2026-05-05 00:02 54.44275 -124.03835 18575 ft 386 kts 132°
2026-05-05 00:02 54.42427 -124.00648 18294 ft 376 kts 132°
2026-05-05 00:02 54.40619 -123.97522 18169 ft 363 kts 132°
2026-05-05 00:02 54.38872 -123.94510 18105 ft 350 kts 132°
2026-05-05 00:03 54.37145 -123.91537 17595 ft 354 kts 132°
2026-05-05 00:03 54.35401 -123.88531 17029 ft 356 kts 133°
2026-05-05 00:03 54.33649 -123.85530 16500 ft 356 kts 133°
2026-05-05 00:03 54.32006 -123.82404 15973 ft 351 kts 121°
2026-05-05 00:04 54.30974 -123.78678 15455 ft 344 kts 109°
2026-05-05 00:04 54.29725 -123.75191 14946 ft 346 kts 128°
2026-05-05 00:04 54.28174 -123.72055 14443 ft 343 kts 128°
2026-05-05 00:04 54.26653 -123.68925 13951 ft 341 kts 128°
2026-05-05 00:05 54.25153 -123.65812 13407 ft 338 kts 128°
2026-05-05 00:05 54.23698 -123.62781 12865 ft 330 kts 128°
2026-05-05 00:05 54.22266 -123.59794 12331 ft 320 kts 128°
2026-05-05 00:05 54.20875 -123.56890 11798 ft 312 kts 128°
2026-05-05 00:06 54.19516 -123.54053 11386 ft 304 kts 128°
2026-05-05 00:06 54.18201 -123.51316 11191 ft 291 kts 128°
2026-05-05 00:06 54.16938 -123.48692 10973 ft 283 kts 128°
2026-05-05 00:06 54.15699 -123.46118 10729 ft 280 kts 128°
2026-05-05 00:07 54.14468 -123.43555 10492 ft 279 kts 128°
2026-05-05 00:07 54.13232 -123.40992 10250 ft 280 kts 128°
2026-05-05 00:07 54.11998 -123.38431 10013 ft 279 kts 127°
2026-05-05 00:07 54.10757 -123.35865 9652 ft 282 kts 128°
2026-05-05 00:08 54.09514 -123.33282 9280 ft 282 kts 127°
2026-05-05 00:08 54.08268 -123.30719 8921 ft 280 kts 128°
2026-05-05 00:08 54.07049 -123.28204 8561 ft 278 kts 128°
2026-05-05 00:08 54.05818 -123.25665 8204 ft 277 kts 128°
2026-05-05 00:09 54.04602 -123.23139 7856 ft 275 kts 128°
2026-05-05 00:09 54.03398 -123.20620 7516 ft 275 kts 127°
2026-05-05 00:09 54.02188 -123.18116 7248 ft 273 kts 127°
2026-05-05 00:09 54.00985 -123.15632 6980 ft 271 kts 127°
2026-05-05 00:10 53.99790 -123.13166 6715 ft 270 kts 127°
2026-05-05 00:10 53.98591 -123.10729 6490 ft 267 kts 128°
2026-05-05 00:10 53.97404 -123.08308 6271 ft 267 kts 128°
2026-05-05 00:10 53.96219 -123.05871 6037 ft 267 kts 128°
2026-05-05 00:11 53.95054 -123.03475 5810 ft 266 kts 128°
2026-05-05 00:11 53.93881 -123.01052 5586 ft 265 kts 128°
2026-05-05 00:11 53.92738 -122.98617 5495 ft 259 kts 123°
2026-05-05 00:11 53.91924 -122.96069 5744 ft 238 kts 111°
2026-05-05 00:12 53.91327 -122.93533 5811 ft 227 kts 109°
2026-05-05 00:12 53.90751 -122.91064 5690 ft 226 kts 109°
2026-05-05 00:12 53.90199 -122.88637 5376 ft 216 kts 109°
2026-05-05 00:12 53.89637 -122.86333 5108 ft 206 kts 111°
2026-05-05 00:13 53.89109 -122.84151 4932 ft 194 kts 110°
2026-05-05 00:13 53.88624 -122.82068 4711 ft 187 kts 107°
2026-05-05 00:13 53.88206 -122.80047 4107 ft 175 kts 104°
2026-05-05 00:13 53.87819 -122.78208 3524 ft 156 kts 110°
2026-05-05 00:14 53.87356 -122.76718 3361 ft 129 kts 112°
2026-05-05 00:14 53.87074 -122.75264 3295 ft 138 kts 103°
2026-05-05 00:14 53.86637 -122.73706 3272 ft 153 kts 119°
2026-05-05 00:14 53.86078 -122.72178 3399 ft 155 kts 116°
2026-05-05 00:15 53.85664 -122.70538 3365 ft 141 kts 101°
2026-05-05 00:15 53.85546 -122.69067 3240 ft 116 kts 87°
2026-05-05 00:15 53.85660 -122.67742 2982 ft 115 kts 68°
2026-05-05 00:15 53.86040 -122.66584 2715 ft 113 kts 36°
2026-05-05 00:16 53.86739 -122.66191 2371 ft 108 kts 351°
2026-05-05 00:16 53.87448 -122.66376 2206 ft 95 kts 348°
2026-05-05 00:16 53.88009 -122.66540 2209 ft 66 kts 350°
2026-05-05 00:16 53.88394 -122.66650 2212 ft 52 kts 350°
2026-05-05 00:17 53.88639 -122.66743 2218 ft 23 kts 315°
2026-05-05 00:17 53.88637 -122.66987 2218 ft 10 kts 260°
2026-05-05 00:17 53.88636 -122.66994 2217 ft 0 kts 260°
2026-05-05 00:17 53.88631 -122.67043 2219 ft 9 kts 260°
2026-05-05 00:18 53.88618 -122.67173 2219 ft 12 kts 261°
2026-05-05 00:18 53.88605 -122.67313 2222 ft 12 kts 261°
2026-05-05 00:18 53.88583 -122.67465 2229 ft 15 kts 238°
2026-05-05 00:18 53.88499 -122.67565 2229 ft 14 kts 211°
2026-05-05 00:19 53.88414 -122.67651 2228 ft 14 kts 206°
2026-05-05 00:19 53.88337 -122.67719 2229 ft 8 kts 184°
2026-05-05 00:19 53.88307 -122.67681 2229 ft 2 kts 101°
2026-05-05 00:19 53.88312 -122.67667 2226 ft 0 kts 34°